Время (UTC), дата Ветер
(°,м/с) 
Видим.   Явления Облачность Т
(°С)
Тd
(°С)
f(%) Тe
(°С)
Pmin
(гПа)
dP
(гПа)
Po
(мм)
O2
(г/м3)
Тmin Tmax R s Состояние
почвы
00 01.01.16 070 (В) 7000 м  дымка  4/0 средняя 
[Ac trans]
-15.7 -17.5 86 -16  1026  762  327           
03 01.01.16 050 (СВ) 8000 м  дымка  6/0 средняя 
[Ac trans]
-16 -17.9 85 -20  1026.2  0.2  762  328  -16.6    0.0     
06 01.01.16 040 (СВ) 10 км    5/0 средняя, верхняя 
[Ac trans|Ci fib]
-16.2 -18.1 85 -19  1027.3  763  328  -17.1         
09 01.01.16 110 (В) 4100 м  слаб. снег{туман}  8/6 480 м средняя 
[Sc|Ac trans]
-13 -14.9 86 -16  1027.5  0.3  763  324           
12 01.01.16 050 (СВ) 10 км  {снег, туман}  3/0 средняя 
[Ac trans]
-12.2 -14.8 81 -16  1027.2  -0.3  763  323           
15 01.01.16 060 (СВ) 7000 м  дымка  9/5 210 м средняя, верхняя 
[St|Ac trans|Ci fib]
-15.8 -17.6 86 -18  1028.7  1.4  764  328    -11.6  0.0     
18 01.01.16 050 (СВ) 6000 м  дымка{снег}  ясно 
-15.9 -17.8 85 -21  1029  0.2  764  328           
21 01.01.16 050 (СВ) 5000 м  слаб. снег  5/4 540 м средняя 
[Sc|Ac trans]
-14.6 -16.5 85 -18  1029.2  0.1  764  327           
00 02.01.16 070 (В) 7000 м  в посл. час снег  5/3 300 м средняя 
[Sc|Ac trans]
-16.3 -18.4 84 -20  1029.3  0.1  764  329           
03 02.01.16 060 (СВ) 8000 м  в посл. час снег  9/4 300 м средняя 
[Sc|Ac trans]
-14.4 -16.4 85 -20  1028.8  -0.4  764  326  -18    0.0     
06 02.01.16 040 (СВ) 3500 м  слаб. снег  10/8 270 м средняя 
[Sc|Ac und]
-14.4 -16.4 85 -19  1029  0.2  764  326           
09 02.01.16 060 (СВ) 1400 м  снег{морось}  10/8 240 м средняя 
[Sc|Ac und]
-11.9 -13.7 86 -17  1028.7  -0.1  764  323           
12 02.01.16 050 (СВ) 2800 м  слаб. снег  10/3 300 м средняя 
[Frnb|As op]
-11.6 -13.7 84 -17  1027.9  -0.6  764  323           
15 02.01.16 040 (СВ) 6000 м  слаб. снег  10/5 330 м средняя 
[Frnb|As op]
-12.2 -14.1 86 -17  1028  764  323    -11.4  0.6     
18 02.01.16 050 (СВ) 2700 м  снег  10/5 180 м средняя 
[Frnb|As op]
-12 -13.8 86 -17  1027.4  -0.6  763  323           
21 02.01.16 050 (СВ) 8000 м  слаб. снег  8/5 300 м средняя 
[Sc|Ac trans]
-14.2 -16.2 85 -19  1026.2  -1.1  762  325           
00 03.01.16 040 (СВ) 5000 м  слаб. снег  10/8 240 м средняя 
[Sc|Ac und]
-13.8 -15.8 85 -17  1025.6  -0.5  762  325           
03 03.01.16 350 (С) 4000 м  слаб. снег  9/5 700 м средняя 
[Sc|Ac trans]
-14.6 -16.7 84 -19  1024.1  -1.5  761  325  -14.6    0.4     
06 03.01.16 340 (С) 2400 м  снег  10/10 330 м 
[Sc]
-15.4 -17.6 83 -19  1024.1  761  326  -15.4         
09 03.01.16 340 (С) 10 км  слаб. снег  9/6 570 м средняя 
[Sc|Ac trans]
-14.7 -17.3 81 -18  1023.2  -0.7  760  325           
12 03.01.16 300 (СЗ) 6000 м  слаб. снег  9/6 800 м средняя 
[Sc|Ac trans]
-14.4 -17.1 80 -19  1022.6  -0.6  759  324           
15 03.01.16 280 (З) 7000 м  слаб. снег  9/4 1000 м средняя, верхняя 
[Sc|Ac trans|Ci fib]
-15.4 -17.9 81 -19  1022.9  0.2  760  326    -14.2  0.6     
18 03.01.16 290 (З) 8000 м  {снег}  6/0 средняя, верхняя 
[Ac trans|Ci fib]
-16.7 -19.5 79 -21  1023.4  0.3  760  328           
21 03.01.16 300 (СЗ) 8000 м    4/0 верхняя 
[Ci fib]
-18.1 -20.7 80 -21  1023.7  0.2  760  330           
00 04.01.16 310 (СЗ) 8000 м    3/0 верхняя 
[Ci fib]
-18.3 -20.9 80 -22  1022.8  -0.8  759  330           
03 04.01.16 260 (З) 8000 м    3/0 верхняя 
[Ci fib]
-18.4 -20.8 81 -21  1021.7  -1.1  759  329  -18.9         
06 04.01.16 тихо ()   6000 м  дымка  ясно 
-19.7 -21.9 83 -20  1021  -0.6  758  331  -20.2         
09 04.01.16 210 (ЮЗ) 10 км    5/0 средняя, верхняя 
[Ac trans|Ci fib]
-14.3 -16.4 84 -18  1019.7  -1.1  757  323           
12 04.01.16 100 (В) 10 км  слаб. снег  6/5 570 м средняя 
[Sc|Ac trans]
-14.6 -17.2 81 -17  1018.6  -1  756  323           
15 04.01.16 100 (В) 8000 м  {снег}  ясно 
-17.6 -19.7 84 -22  1018.8  757  327    -12.4  0.0     
18 04.01.16 090 (В) 8000 м  {снег}  3/0 средняя 
[Ac trans]
-19.3 -21.5 83 -25  1018.2  -0.6  756  329           
21 04.01.16 080 (В) 2900 м  слаб. снег  9/9 180 м 
[Sc]
-18 -20.1 84 -23  1016.8  -1.3  755  327           
00 05.01.16 070 (В) 3100 м  слаб. ливневой снег  10/8 900 м кучево-дожд., средняя 
[Cb calv|Ac und]
-16.3 -18.4 84 -22  1014.8  -1.8  754  324           
03 05.01.16 070 (В) 9-11{11}  3200 м  слаб. ливневой снег  10/8 270 м кучево-дожд., средняя 
[Cb calv|Ac und]
-14.3 -16.2 85 -22  1013.2  -1.5  752  321  -20.6    0.8     
06 05.01.16 080 (В) 9-10{14}  1000 м  ливневой снег  10/8 900 м кучево-дожд., средняя 
[Cb calv|Ac und]
-11.5 -13.2 87 -19  1011.8  -1.3  752  317           
09 05.01.16 090 (В) 9-12{13}  1500 м  слаб. снег{ливн. осадки}  10/10 300 м 
[Frnb|Ac As]
-8.8 -10.5 87 -15  1010.9  -0.8  751  314           
12 05.01.16 090 (В) 9-12{13}  3800 м  слаб. ливневой снег  10/10 540 м кучево-дожд. 
[Cb calv|Ac As]
-8.1 -9.8 88 -15  1009.5  -1.3  750  312           
15 05.01.16 090 (В) 8-11{13}  8000 м  позёмок{ливн. осадки, снег}  10/10 450 м 
[Frnb|Ac As]
-7.5 -9.3 87 -13  1009.9  0.4  750  312    -7.5  0.6     
18 05.01.16 080 (В) 7-10{13}  8000 м  позёмок{ливн. осадки, снег}  10/8 270 м средняя 
[Sc|Ac und]
-8.1 -9.6 89 -14  1009.8  -0.1  750  312           
21 05.01.16 080 (В) 7{10}  3400 м  слаб. снег  10/8 270 м средняя 
[Sc|Ac trans]
-7.3 -8.8 89 -13  1009.6  -0.2  750  311           
00 06.01.16 070 (В) 7{10}  2500 м  слаб. снег  10/8 270 м средняя 
[Sc|Ac trans]
-6.8 -8.1 90 -12  1009.8  0.1  750  311           
03 06.01.16 060 (СВ) 5{11}  2100 м  слаб. снег  10/8 660 м средняя 
[Sc|Ac und]
-6.2 -7.4 91 -10  1011.3  1.4  751  311  -8.3       
06 06.01.16 010 (С) 10 км  слаб. дождь{снег}  9/6 540 м средняя 
[Sc|Ac trans]
-5.2 -6.4 91 -7  1013.6  2.3  753  310           
09 06.01.16 300 (СЗ) 10 км  {снег}  8/0 средняя 
[Ac trans]
-3 -4.5 89 -3  1014.8  1.1  754  308           
12 06.01.16 060 (СВ) 10 км  {снег}  9/5 450 м средняя 
[Sc|Ac trans]
-2.8 -4.6 87 -2  1015.1  0.4  754  308           
15 06.01.16 270 (З) 8000 м    10/6 240 м средняя 
[Sc|Ac und]
-3.2 -4.7 89 -4  1016.8  1.5  755  309    -2.4  0.9     
18 06.01.16 200 (Ю) 8000 м    10/6 270 м средняя 
[St|Ac und]
-3.5 -5.1 89 -5  1015.6  -1.1  755  309           
21 06.01.16 170 (Ю) 8000 м    10/6 240 м средняя 
[St|Ac und]
-3.9 -5.3 90 -5  1015.3  -0.3  754  309           
00 07.01.16 080 (В) 8000 м    10/6 180 м средняя 
[St|Ac und]
-4.1 -5.1 93 -6  1014  -1.3  753  309           
03 07.01.16 100 (В) 2600 м  дымка  10/10 180 м 
[St]
-4.7 -5.4 95 -8  1013.2  -0.6  753  309  -4.7         
06 07.01.16 080 (В) 0700 м  туман  ?/?  
-4.4 -5.1 95 -8  1012.2  -1  752  309  -4.9         
09 07.01.16 080 (В) 8000 м  слаб. снег{туман}  10/8 120 м средняя 
[Frnb|As op]
-3.8 -4.5 95 -8  1009.6  -2.5  750  307           
12 07.01.16 080 (В) 8-11{12}  1900 м  ливневой снег  10/8 150 м кучево-дожд., средняя 
[Cb calv|As op]
-2.2 -2.9 95 -7  1007.3  -2.3  748  304           
15 07.01.16 090 (В) 7{12}  6000 м  слаб. переохл. дождь (гололёд){ливн. осадки, снег} [диам. гололёда 6 мм]  10/8 120 м средняя 
[Frnb|As op]
-0.4 -1 96 -4  1004.4  -2.6  746  301    -0.4     
18 07.01.16 090 (В) 7000 м  слаб. переохл. дождь (гололёд) [диам. гололёда 8 мм]  10/8 120 м средняя 
[Frnb|As op]
-0.1 -0.7 96 -3  1002.8  -1.6  745  300           
21 07.01.16 100 (В) 8000 м  слаб. дождь [диам. гололёда 8 мм]  10/8 100 м средняя 
[Frnb|As op]
+0.1 -0.4 96 -2  1001.4  -1.4  744  300           
00 08.01.16 090 (В) 6000 м  слаб. дождь [диам. гололёда 7 мм]  10/6 120 м средняя 
[Frnb|As op]
+0.2 -0.2 97 -2  1000.1  -1.1  743  299           
03 08.01.16 090 (В) 4300 м  слаб. дождь [диам. гололёда 6 мм]  10/6 120 м средняя 
[Frnb|As op]
+0.6 +0 96 -3  999.5  -0.6  743  299  -0.4       
06 08.01.16 090 (В) 7{12}  8000 м  слаб. дождь  10/6 100 м средняя 
[Frnb|As op]
+0.8 +0.2 96 -3  1000.6  744  299  -0.1         
09 08.01.16 090 (В) 4300 м  слаб. дождь  10/6 120 м средняя 
[Frnb|As op]
+0.8 +0.4 97 -3  1000.5  743  299           
12 08.01.16 080 (В) 8-11{11}  2800 м  слаб. дождь  10/6 60 м средняя 
[Frnb|As op]
+0.5 +0.1 97 -4  999.8  -0.7  743  299           
15 08.01.16 110 (В) 5{11}  0100 м  слаб. дождь{туман}  ?/?  
+0.2 -0.1 98 -3  1001.8  1.8  744  300    +1     
18 08.01.16 150 (ЮВ) 2{11}  0200 м  слаб. дождь{туман}  ?/?  
+0.6 +0.3 98 1001.9  0.1  745  299           
21 08.01.16 270 (З) 6000 м  слаб. морось{дождь}  10/10 210 м 
[St]
+0.9 +0.6 98 -1  1002.8  0.9  745  299           
00 09.01.16 220 (ЮЗ) 6{10}  6000 м  дымка{дождь, морось}  10/10 210 м 
[Sc]
+0.6 +0.3 98 -3  1003.6  0.6  746  300           
03 09.01.16 240 (ЮЗ) 7-10{13}  7000 м  слаб. снег  10/10 180 м 
[Sc]
-0.1 -1.3 92 -4  1003.8  0.2  746  301  -0.2       
06 09.01.16 250 (З) 9-13{14}  3200 м  слаб. снег  10/10 210 м 
[Sc]
-1 -2.3 91 -6  1004.3  0.4  746  302  -1         
09 09.01.16 260 (З) 8-11{15}  7000 м  слаб. снег  10/8 540 м средняя 
[Sc|As op]
-1.8 -4.2 84 -6  1006.4  748  304           
12 09.01.16 260 (З) 8-12{15}  10 км  позёмок{снег}  10/8 420 м средняя 
[Frnb|As op]
-1.8 -4.3 83 -6  1007.8  1.3  749  304           
15 09.01.16 250 (З) 8-12{14}  8000 м  слаб. снег  10/8 210 м средняя 
[Frnb|As op]
-1.1 -2.5 90 -6  1008.5  0.7  749  303    -0.1  0.6     
18 09.01.16 260 (З) 7-11{14}  6000 м  слаб. снег  10/8 330 м средняя 
[Sc|As op]
-0.5 -2.6 86 -4  1009.5  0.9  750  303           
21 09.01.16 270 (З) 6{13}  6000 м  слаб. снег  10/6 500 м средняя 
[Sc|As op]
-0.4 -2.5 86 -4  1010.9  1.3  751  303           
00 10.01.16 260 (З) 6-10{13}  5000 м  дымка{снег}  10/6 480 м средняя 
[Sc|As op]
-0.1 -1.8 88 -4  1012  752  303           
03 10.01.16 270 (З) 4{12}  5000 м  дымка  10/6 500 м средняя 
[Sc|As op]
-0.3 -1.8 90 -3  1012.8  0.7  753  304  -1.1    0.0     
06 10.01.16 270 (З) 4{12}  5000 м  дымка  9/4 600 м средняя 
[Sc|Ac trans]
-0.3 -2.2 87 -3  1014.1  1.2  754  304           
09 10.01.16 260 (З) 10 км    8/4 300 м средняя 
[Sc|Ac trans]
+0.5 -2.3 81 -2  1015.3  1.3  754  304           
12 10.01.16 290 (З) 10 км    10/8 330 м средняя 
[Sc|Ac und]
+0.2 -2.1 85 -2  1015.3  754  304           
15 10.01.16 310 (СЗ) 8000 м    10/8 330 м средняя 
[Sc|Ac und]
-0.2 -2.8 83 -2  1016.2  0.8  755  305    +0.5       
18 10.01.16 340 (С) 7000 м  дымка  10/8 360 м средняя 
[Sc|Ac und]
-1.1 -3.5 84 -2  1016.5  0.3  755  306           
21 10.01.16 090 (В) 7000 м  дымка  10/6 870 м средняя 
[Sc|Ac und]
-1 -2.9 87 1016.5  755  306           
00 11.01.16 080 (В) 6000 м  слаб. переохл. дождь (гололёд) [диам. гололёда 1 мм]  10/8 800 м средняя 
[Sc|Ac und]
-0.9 -2.7 88 -2  1016.4  -0.1  755  306           
03 11.01.16 090 (В) 0900 м  ливневой снег [диам. гололёда 1 мм]  ?/?  
-1.8 -2.5 95 -5  1016.3  -0.1  755  307  -1.8       
06 11.01.16 090 (В) 8-10{10}  1200 м  снег{ливн. осадки} [диам. гололёда 0.3 мм]  10/8 120 м средняя 
[Frnb|As op]
-2.4 -3.1 95 -7  1016.4  755  307  -2.4         
09 11.01.16 090 (В) 8{11}  1100 м  снег [диам. гололёда 0.1 мм]  10/8 120 м средняя 
[Frnb|As op]
-2 -2.7 95 -7  1015.5  -0.8  755  307           
12 11.01.16 100 (В) 7{11}  1300 м  снег [диам. гололёда 0 мм]  10/10 120 м 
[Cu med, cong]
-1 -1.6 96 -5  1014.3  -1  754  305           
15 11.01.16 100 (В) 7-10{10}  1800 м  переохл. дождь (гололёд){снег} [диам. гололёда 1 мм]  10/10 100 м 
[Frnb|Ns]
-0.3 -0.7 97 -4  1013.9  -0.4  753  304    -0.3     
18 11.01.16 100 (В) 7-10{10}  1600 м  слаб. дождь{снег} [диам. гололёда 1 мм]  10/10 100 м 
[Frnb]
+0.3 +0 98 -4  1012.5  -1.5  752  303           
21 11.01.16 100 (В) 5{10}  0300 м  слаб. дождь{туман} [диам. гололёда 0 мм]  10/8 100 м средняя 
[Frnb|As op]
+0.7 +0.5 99 -2  1012.2  -0.1  752  302           
00 12.01.16 110 (В) 0100 м  слаб. морось{дождь}  ?/?  
+0.8 +0.6 99 -1  1012  -0.1  752  302           
03 12.01.16 150 (ЮВ) 0100 м  туман{морось}  ?/?  
+1.9 +1.7 99 +1  1012.1  752  301  -0.5    11     
06 12.01.16 100 (В) 0100 м  туман{морось}  ?/?  
+1.1 +0.9 99 1012  752  302           
09 12.01.16 110 (В) 0100 м  туман  ?/?  
+2.2 +2 99 1010.4  -1.5  751  300           
12 12.01.16 110 (В) 4200 м  слаб. дождь{туман}  10/4 100 м средняя 
[Frnb|As op]
+2.8 +2.6 99 1008  -2.3  749  298           
15 12.01.16 110 (В) 7000 м  слаб. ливневой дождь  10/5 800 м кучево-дожд., средняя 
[Cb calv|As op]
+3.1 +1.7 91 1006.2  -1.8  748  298    +3.7     
18 12.01.16 130 (ЮВ) 5{11}  7000 м  слаб. ливневой дождь  10/5 870 м кучево-дожд., средняя 
[Cb calv|Ac As]
+4.9 +2.9 87 +3  1004  -2  746  295           
21 12.01.16 150 (ЮВ) 3600 м  слаб. ливневой дождь  10/8 300 м кучево-дожд., средняя 
[Cb calv|Ac und]
+5.3 +3.7 89 +3  1001.7  -2.2  744  294           
00 13.01.16 190 (Ю) 4{10}  3700 м  слаб. ливневой дождь  10/8 570 м кучево-дожд., средняя 
[Cb calv|Ac und]
+4.7 +3.3 91 +3  1001.5  -0.2  744  294           
03 13.01.16 240 (ЮЗ) 0700 м  слаб. ливневой дождь{туман}  ?/?  
+5.6 +5.1 97 +4  1001.4  744  293  +2.9    14     
06 13.01.16 250 (З) 3200 м  слаб. ливневой дождь{туман}  10/8 100 м кучево-дожд., средняя 
[Cb calv|Ac und]
+3.6 +3 96 +2  1004.2  2.6  746  296           
09 13.01.16 270 (З) 0100 м  туман{ливн. осадки}  ?/?  
+3.5 +3 97 +2  1006.3  2.1  748  297           
12 13.01.16 190 (Ю) 0100 м  туман{ливн. осадки}  ?/?  
+2.8 +2.5 98 +1  1006.9  0.5  748  298           
15 13.01.16 190 (Ю) 0200 м  туман  ?/?  
+3.7 +3.4 98 +3  1008  1.1  749  297    +6     
18 13.01.16 210 (ЮЗ) 2300 м  в посл. час туман  10/10 210 м 
[St]
+4.1 +3.8 98 +3  1008.1  749  297           
21 13.01.16 260 (З) 1900 м  морось{туман}  10/10 60 м 
[St]
+2.4 +2.2 99 +2  1008.6  0.5  750  299           
00 14.01.16 250 (З) 1400 м  слаб. морось{туман}  10/10 150 м 
[St]
+2.8 +2.6 99 +2  1009.1  0.5  750  299           
03 14.01.16 300 (СЗ) 0300 м  туман{морось}  ?/?  
+2.6 +2.4 99 +2  1008.9  -0.1  750  299  +2    0.0     
06 14.01.16 190 (Ю) 0200 м  слаб. морось{туман}  ?/?  
+2 +1.8 99 +1  1010.7  1.6  751  300  +1.8         
09 14.01.16 200 (Ю) 3400 м  в посл. час ливневой дождь  9/6 120 м кучево-дожд., средняя 
[Cb calv|Ac trans]
+3.8 +3.6 99 +3  1010.7  0.2  751  298           
12 14.01.16 310 (СЗ) 1800 м  дымка{туман}  10/10 100 м 
[St]
+1.7 +1.4 98 1012  752  301           
15 14.01.16 320 (СЗ) 2300 м  дымка{туман}  10/10 150 м 
[St]
+0.7 +0.4 98 1013.6  1.5  753  303    +5.4  0.5     
18 14.01.16 270 (З) 3200 м  дымка  9/6 210 м средняя 
[St|Ac trans]
+0 -0.6 96 -1  1015  1.4  754  304           
21 14.01.16 300 (СЗ) 2600 м  дымка  10/8 120 м средняя 
[St|Ac und]
-0.2 -0.9 95 1016.3  1.2  755  305           
00 15.01.16 240 (ЮЗ) 0100 м  слаб. морось{туман} [диам. гололёда 1 мм]  ?/?  
-1.9 -2.3 97 -5  1017.2  0.8  756  307           
03 15.01.16 180 (Ю) 2700 м  слаб. снег{морось} [диам. гололёда 1 мм]  10/8 60 м средняя 
[Frnb|As op]
-1.5 -1.9 97 -2  1017.7  0.4  756  307  -2    0.3     
06 15.01.16 230 (ЮЗ) 2600 м  слаб. ливневой снег [диам. гололёда 0 мм]  10/8 150 м кучево-дожд., средняя 
[Cb calv|As op]
-0.9 -1.2 98 1019.2  1.5  757  306           
09 15.01.16 250 (З) 3600 м  в посл. час ливневой снег  10/8 150 м кучево-дожд., средняя 
[Cb calv|Ac und]
+0.2 -0.1 98 -2  1019.8  0.6  758  305           
12 15.01.16 280 (З) 1400 м  дымка{ливн. осадки, туман}  10/10 100 м 
[St]
+0.3 -0.1 97 1021.3  1.4  759  305           
15 15.01.16 тихо ()   3700 м  дымка{морось, туман}  10/8 210 м средняя 
[Sc|Ac und]
+0.3 -0.4 95 1023.2  1.8  760  306    +0.5     
18 15.01.16 120 (ЮВ) 5000 м  дымка  9/3 800 м кучево-дожд., средняя 
[Cb calv|Ac trans]
-0.4 -1.8 90 1023.6  0.4  761  307           
21 15.01.16 080 (В) 4200 м  дымка  9/6 300 м кучево-дожд., средняя 
[Cb calv|Ac trans]
-2 -2.7 95 -4  1023.9  0.2  761  309           
00 16.01.16 100 (В) 5000 м  дымка  9/6 210 м кучево-дожд., средняя 
[Cb calv|Ac trans]
-1.9 -2.7 94 -5  1023.5  -0.3  761  309           
03 16.01.16 100 (В) 0600 м  туман  ?/?  
-2.5 -2.9 97 -5  1022.6  -1  760  309  -2.5         
06 16.01.16 090 (В) 3300 м  дымка{туман}  10/8 100 м средняя 
[St|Ac und]
-2.6 -3.1 96 -7  1021.7  -0.7  759  309  -2.9         
09 16.01.16 090 (В) 8-10{11}  4800 м  дымка  9/6 270 м средняя 
[St|Ac trans]
-0.7 -1.6 94 -5  1019.9  -1.7  758  306           
12 16.01.16 100 (В) 8-11{11}  10 км    9/0 средняя 
[Ac trans]
+0.7 -0.8 90 -3  1017.9  -1.8  756  304           
15 16.01.16 100 (В) 7{11}  4500 м  дымка  10/6 270 м средняя 
[St|Ac und]
+0.5 -0.4 94 -3  1016.9  -0.9  756  304    +0.8       
18 16.01.16 090 (В) 6{10}  5000 м  слаб. ливневой дождь  10/5 300 м кучево-дожд., средняя 
[Cb calv|Ac und]
+1.3 +0.1 92 -2  1015.8  -1.1  755  303           
21 16.01.16 110 (В) 5000 м  дымка{ливн. осадки}  10/3 300 м средняя 
[St|Ac und]
+0.7 -0.1 94 -2  1014.6  -1  754  303           
00 17.01.16 100 (В) 6000 м  дымка{ливн. осадки}  10/0 средняя 
[Ac und]
+1.1 +0 92 1013.1  -1.4  753  302           
03 17.01.16 110 (В) 8000 м  слаб. ливневой дождь  10/4 1000 м кучево-дожд., средняя 
[Cb calv|Ac und]
+1.3 +0.2 92 -1  1011.7  -1.4  752  301  +0.4    0.0     
06 17.01.16 090 (В) 10 км  {ливн. осадки}  9/0 средняя 
[Ac trans]
+1.8 +0.5 91 1011.2  -0.4  751  301           
09 17.01.16 100 (В) 10 км    9/3 300 м средняя 
[Sc|Ac trans]
+3.1 +1.1 87 +2  1010.4  -0.7  751  299           
12 17.01.16 080 (В) 10 км  {ливн. осадки}  9/3 300 м средняя 
[St|Ac trans]
+4 +2 87 +1  1008.5  -1.9  749  297           
15 17.01.16 080 (В) 7{10}  7000 м  дымка  9/3 100 м средняя 
[St|Ac trans]
+2.3 +1.4 94 -1  1007.4  -1  749  299    +4.3  0.0     
18 17.01.16 090 (В) 7-10{10}  4100 м  дымка  10/8 150 м средняя 
[St|Ac und]
+2.5 +1.8 95 -1  1007.2  -0.2  749  299           
21 17.01.16 090 (В) 5{10}  4900 м  дымка  10/6 120 м средняя 
[St|Ac trans]
+2.3 +1.7 96 1005.9  -1.3  748  298           
00 18.01.16 090 (В) 6{10}  4600 м  дымка  10/10 120 м 
[St]
+2.5 +1.9 96 1005.2  -0.8  747  298           
03 18.01.16 100 (В) 6{11}  2800 м  дымка  10/10 100 м 
[St]
+2.9 +2.3 96 1003.5  -1.6  746  297  +2.2         
06 18.01.16 100 (В) 5{11}  3800 м  дымка  10/8 120 м средняя 
[St|Ac und]
+2.9 +2.3 96 1003.7  0.1  746  297           
09 18.01.16 090 (В) 8-11{12}  4000 м  дымка  10/8 240 м средняя 
[St|Ac und]
+3.7 +2.7 93 1001.6  -1.9  744  295           
12 18.01.16 090 (В) 8-10{13}  10 км    10/8 150 м средняя 
[St|Ac und]
+4.1 +3.1 93 +1  1000.4  -1.1  743  295           
15 18.01.16 110 (В) 6{11}  2600 м  дымка  10/8 120 м средняя 
[St|Ac und]
+3.6 +2.9 95 +1  1000.7  0.3  744  295    +4.2       
18 18.01.16 100 (В) 6{10}  1100 м  дымка  10/10 100 м 
[St]
+3.3 +2.7 96 1000.3  -0.6  743  296           
21 18.01.16 100 (В) 0200 м  слаб. дождь{туман}  ?/?  
+3.2 +2.9 98 +1  999  -1.1  742  295           
00 19.01.16 120 (ЮВ) 1100 м  в посл. час дождь{туман}  10/8 270 м средняя 
[Frnb|As op]
+3.1 +2.8 98 +2  998.9  742  295           
03 19.01.16 290 (З) 2500 м  в посл. час туман{дождь}  10/8 120 м средняя 
[Frnb|As op]
+2 +1.8 99 999.3  0.3  743  297  +2    0.4     
06 19.01.16 240 (ЮЗ) 4300 м  дымка{дождь, морось}  10/10 120 м 
[St]
+1 +0.7 98 -1  1000.6  1.2  744  298  +1         
09 19.01.16 240 (ЮЗ) 5000 м  в посл. час морось  10/10 240 м 
[St]
+0.7 -0.3 93 -3  1001.6  0.9  744  299           
12 19.01.16 230 (ЮЗ) 8-11{12}  7000 м  дымка{морось}  10/10 270 м 
[Sc]
-1 -2.8 88 -5  1003.2  1.5  745  302           
15 19.01.16 240 (ЮЗ) 8-11{12}  8000 м  слаб. снег  10/10 400 м 
[Sc]
-2.3 -4.7 84 -7  1005.6  2.3  747  304    +2  0.0     
18 19.01.16 250 (З) 8-11{13}  8000 м  {снег}  10/8 540 м средняя 
[Sc|As op]
-2.4 -5.5 79 -7  1008.3  2.5  749  305           
21 19.01.16 260 (З) 6-11{14}  8000 м    10/8 570 м средняя 
[Sc|As op]
-3 -6.7 76 -7  1010.9  2.6  751  307           
00 20.01.16 270 (З) 7-12{14}  10 км  в посл. час снег  8/5 600 м средняя 
[Sc|Ac trans]
-4.2 -8.8 70 -9  1013.7  2.7  753  309           
03 20.01.16 260 (З) 8-13{17}  8000 м    10/6 600 м средняя 
[Sc|Ac und]
-3.6 -8.7 68 -9  1016  2.4  755  309  -4.2    0.0     
06 20.01.16 250 (З) 8-12{17}  10 км    9/6 630 м кучево-дожд., средняя 
[Cb calv|Ac trans]
-3.7 -7.2 77 -9  1019  2.8  757  310           
09 20.01.16 250 (З) 9-14{16}  10 км    9/6 540 м кучево-дожд., средняя 
[Cb calv|Ac trans]
-3.8 -7.7 74 -9  1020.5  1.3  758  311           
12 20.01.16 270 (З) 6-10{16}  10 км  в посл. час снег  8/5 570 м средняя 
[Sc|Ac trans]
-2.7 -7.9 67 -7  1020.7  0.3  758  309           
15 20.01.16 260 (З) 6{12}  6000 м  слаб. снег  10/8 450 м средняя 
[Sc|Ac und]
-2.5 -6.2 76 -6  1022.6  1.8  760  310    -2.4  0.0     
18 20.01.16 260 (З) 3{12}  8000 м  {снег}  3/0 средняя 
[Ac trans]
-3.5 -7.3 75 -6  1024.4  1.8  761  311           
21 20.01.16 250 (З) 8000 м    3/0 средняя 
[Ac trans]
-6.6 -8.4 87 -8  1026  1.4  762  316           
00 21.01.16 260 (З) 8000 м    1/0 средняя 
[Ac trans]
-8.2 -9.3 92 -8  1026.8  0.6  763  318           
03 21.01.16 160 (Ю) 8000 м  дымка  3/0 средняя 
[Ac trans]
-7.9 -9.3 90 -9  1027.2  0.4  763  318  -9.3    0.0     
06 21.01.16 100 (В) 10 км    9/0 средняя, верхняя 
[Ac trans|Ci fib]
-7.8 -9 91 -11  1027.6  0.3  763  318           
09 21.01.16 100 (В) 10 км    9/0 средняя 
[Ac trans]
-3.5 -5.1 89 -7  1026.1  -1.3  762  312           
12 21.01.16 100 (В) 10 км  {ливн. осадки}  9/3 600 м кучево-дожд., средняя 
[Cb calv|Ac trans]
-0.8 -3.9 79 -4  1024  -2  761  308           
15 21.01.16 100 (В) 8000 м  слаб. ливневой снег  10/3 1000 м кучево-дожд., средняя 
[Cb calv|Ac und]
-0.4 -3 83 -4  1022.9  -1.1  760  307    -0.3  0.0     
18 21.01.16 130 (ЮВ) 1100 м  ливневой снег  10/6 180 м кучево-дожд., средняя 
[Cb calv|Ac und]
-0.7 -1.3 96 -4  1022  -0.8  759  307           
21 21.01.16 180 (Ю) 7000 м  слаб. переохл. дождь (гололёд){ливн. осадки} [диам. гололёда 1 мм]  10/6 180 м кучево-дожд., средняя 
[Cb calv|Ac und]
-0.3 -1 95 -3  1021.5  -0.5  759  306           
00 22.01.16 220 (ЮЗ) 6000 м  слаб. снег{ливн. осадки} [диам. гололёда 0 мм]  10/8 120 м средняя 
[Frnb|As op]
+0.2 -0.3 96 -3  1022  0.6  759  306           
03 22.01.16 260 (З) 8000 м  {снег}  10/5 240 м средняя 
[St|Ac und]
+0 -1 93 -2  1022.4  0.3  760  306  -0.7       
06 22.01.16 290 (З) 5000 м  дымка{снег}  9/6 200 м средняя 
[Sc|Ac trans]
-0.5 -2 90 -1  1024  1.5  761  307  -0.8         
09 22.01.16 330 (СЗ) 10 км    9/3 300 м средняя, верхняя 
[St|Ac trans|Ci fib]
-1.3 -4.5 79 -2  1024.7  0.6  761  309           
12 22.01.16 310 (СЗ) 7000 м  дымка  9/1 300 м средняя 
[St|Ac trans]
-1.8 -4.7 81 -3  1024.7  761  309           
15 22.01.16 320 (СЗ) 4900 м  дымка  8/0 средняя, верхняя 
[Ac trans|Ci fib]
-4.1 -6 87 -6  1026.2  1.4  762  313    +0       
Время (UTC), дата Ветер
(°,м/с) 
Видим.   Явления Облачность Т
(°С)
Тd
(°С)
f(%) Тe
(°С)
Pmin
(гПа)
dP
(гПа)
Po
(мм)
O2
(г/м3)
Тmin Tmax R s Состояние
почвы